星链-2002 (STARLINK-2002 )

导读 | 豆包AI

STARLINK-2002是美国SpaceX公司星链(Starlink)低轨通信星座的成员卫星,于2021年2月4日发射入轨。星链项目旨在构建覆盖全球的高速卫星互联网,该卫星采用平板设计,搭载氪工质霍尔推进器,具备自主避撞能力,工作于低轨轨道,为全球用户提供宽带互联网接入服务,单星设计寿命约5-7年,退役后会主动离轨再入大气层烧毁。

Basic Information
目录编号:
47597
目录名称:
STARLINK-2002
国际标识:
2021-009BB
轨道中心:
EARTH
卫星名称:
星链-2002
卫星全名:
星链-2002 (STARLINK-2002 )
卫星状态:
已陨落 最后检测时间 2025-03-29
发射日期:
2021-02-04 UTC
国别 :
美国 (US)
星等 :
--
Orbit Information
数据来源 国际轨道数据
星历时间: 2025-03-29T20:30:47+0800
轨道信息已过期350天
半长轴: 6531.741km
偏心率: 0.0003822
轨道倾角: 53.031°
近地点辐角 291.652°
升交点赤经 102.623°
平近点角 207.882°
近地点: 151.109km
远地点: 156.103km
周期: 87.559分钟
每日圈数: 16.445966
Detailed Information
固有亮度:
5
最大亮度:
2.5
卫星平台:
Starlink V1.0
覆盖范围:
全球
运营商:
太空探索技术公司
运营商所在国:
美国
制造商(研发单位):
太空探索技术公司
制造商所在国:
美国
使用方式:
暂无
Satellite Introduction
星链(Starlink)计划是由太空探索技术公司(SpaceX)提出的一个巨型低轨卫星互联网星座项目,计划在2019年至2024年间在太空搭建由约1.2万颗卫星组成的“星链”网络,其中1584颗将部署在地球上空550千米处的近地轨道,并从2020年开始工作。该卫星仍在工作。